ICEYE-X39

导读

ICEYE-X39是芬兰冰眼公司于2024年8月16日发射的合成孔径雷达(SAR)卫星,属于ICEYE卫星星座。它具备全天时、全天候成像能力,拥有聚束、条带、扫描等多种工作模式,最高分辨率可达0.5米,可满足自然灾害监测、海事监管、边境监控等多领域近实时对地观测需求,进一步扩充了全球最大SAR卫星星座的观测能力。

基本信息
目录编号:
60546
目录名称:
ICEYE-X39
国际标识:
2024-149CG
轨道中心:
EARTH
卫星名称:
ICEYE-X39
卫星全名:
ICEYE-X39
卫星状态:
在轨 (已飞行756 天)
发射日期:
2024-08-16 UTC
国别 :
巴西 (BR)
星等 :
--
该卫星已列入 空间交会检测服务 Space Conjunction Data Service (SCDS) ,当前飞行风险评估等级: 无高风险
轨道信息
数据来源 国际轨道数据
星历时间: 2026-09-11T01:24:36+0800
13小时前
查看轨道信息
半长轴: 6945.099km
偏心率: 0.000865
轨道倾角: 97.675°
近地点辐角 201.459°
升交点赤经 329.632°
平近点角 158.627°
近地点: 560.954km
远地点: 572.97km
周期: 96.001分钟
每日圈数: 14.99979
详细信息
使用方式:
暂无
2D轨道图
3D轨道图
轨道高度分析图
轨道倾角分析图
轨道综合分析图
查看轨道综合分析图
交会数据列表
事件ID 空间交会对象 最接近时刻(TCA) 交会距离 交会风险概率(CRP) 交会风险指数(CRI) 操作
CDM_260912-153505-576006-054622
2026-09-12T
15:35:59+0000
1.360 km
极远距离
9.35799E-6 低风险 0.54
与全量物体交会距离演化趋势
与全量物体交会风险概率演化趋势